7 * 24
多渠道服务支持
JILIN-1 GAOFEN 3D29 是吉林一号高分系列卫星之一,由中国长光卫星技术有限公司研制。该卫星具备高分辨率光学成像能力,主要用于遥感监测、资源调查、环境评估等领域。其发射进一步增强了吉林一号星座的数据获取能力和应用覆盖范围,为农业、林业、城市规划等行业提供精准的遥感数据支持。
数据来源 | 国际轨道数据 |
星历时间: | 2025-10-18T07:22:35+0800 6小时前 查看轨道信息 |
半长轴: | 6815.344km |
偏心率: | 0.0003948 |
轨道倾角: | 97.571° |
近地点辐角 | 185.052° |
升交点赤经 | 25.547° |
平近点角 | 175.069° |
近地点: | 434.518km |
远地点: | 439.9km |
周期: | 93.324分钟 |
每日圈数: | 15.430186 |